This demonstration page uses our WeatherBlox Daily Observations layout. Learn more.

Left ArrowRight Arrow

39.51506, -84.39828

Hourly Observations for February 3, 2020

Temp ( °F °C ) Dew Point ( °F °C ) Humidity (%) Winds ( mph kmh ) Pressure ( in mb ) Visibility ( mi km ) Precip ( " mm )
12:15 am 00:15 Clear 46 7.5 37 2.8 72 72 SSW 8 13 29.84 1010 10 16.0934 0 0
12:35 am 00:35 Clear 41 4.9 35 1.8 81 81 SSW 6 9 29.84 1011 10 16.0934 0 0
12:55 am 00:55 Clear 40 4.6 36 2.4 86 86 Calm 29.84 1011 10 16.0934 0 0
1:15 am 01:15 Clear 40 4.4 36 2.4 87 87 Calm 29.85 1011 10 16.0934 0 0
1:35 am 01:35 Clear 37 2.6 35 1.8 95 95 Calm 29.86 1011 10 16.0934 0 0
1:55 am 01:55 Clear 38 3.4 37 2.5 94 94 Calm 29.87 1011 10 16.0934 0 0
2:15 am 02:15 Clear 34 1.3 33 0.7 96 96 Calm 29.87 1012 10 16.0934 0 0
2:35 am 02:35 Clear 35 1.9 35 1.6 98 98 Calm 29.88 1012 10 16.0934 0 0
2:55 am 02:55 Clear 35 1.7 35 1.6 99 99 Calm 29.89 1012 10 16.0934 0 0
3:15 am 03:15 Clear 35 1.7 35 1.5 99 99 Calm 29.89 1012 10 16.0934 0 0
3:35 am 03:35 Clear 35 1.4 34 1.2 99 99 Calm 29.88 1012 10 16.0934 0 0
3:55 am 03:55 Clear with Mist and Fog 33 0.5 33 0.4 99 99 Calm 29.88 1012 2.5 4.02335 0 0
4:15 am 04:15 Clear with Mist and Fog 32 0.2 32 0.1 99 99 Calm 29.88 1012 3.5 5.63269 0 0
4:35 am 04:35 Clear with Mist and Fog 33 0.5 33 0.4 99 99 Calm 29.88 1012 1.75 2.816345 0 0
4:55 am 04:55 Clear 33 0.8 33 0.8 100 100 Calm 29.89 1012 10 16.0934 0 0
5:15 am 05:15 Clear 33 0.4 33 0.4 100 100 Calm 29.9 1013 10 16.0934 0 0
5:35 am 05:35 Clear 32 0.2 32 0.1 99 99 Calm 29.89 1012 10 16.0934 0 0
5:55 am 05:55 Clear 31 -0.4 31 -0.5 99 99 Calm 29.91 1013 10 16.0934 0 0
6:15 am 06:15 Clear 32 0.1 32 0.1 100 100 Calm 29.89 1012 10 16.0934 0 0
6:35 am 06:35 Clear 32 0.1 32 0 99 99 Calm 29.9 1013 10 16.0934 0 0
6:55 am 06:55 Clear 31 -0.3 31 -0.4 99 99 Calm 29.91 1013 10 16.0934 0 0
7:15 am 07:15 Clear 32 -0.2 31 -0.5 98 98 Calm 29.92 1013 10 16.0934 0 0
7:35 am 07:35 Clear 30 -1 30 -1.3 98 98 Calm 29.91 1013 10 16.0934 0 0
7:55 am 07:55 Sunny 31 -0.5 31 -0.8 98 98 Calm 29.92 1013 10 16.0934 0 0
8:15 am 08:15 Sunny 32 -0.2 31 -0.5 98 98 Calm 29.92 1013 10 16.0934 0 0
8:35 am 08:35 Sunny 32 0 31 -0.5 96 96 Calm 29.91 1013 10 16.0934 0 0
8:55 am 08:55 Sunny 33 0.5 32 0 96 96 Calm 29.92 1013 10 16.0934 0 0
9:15 am 09:15 Sunny 37 2.5 36 2 97 97 Calm 29.91 1013 10 16.0934 0 0
9:35 am 09:35 Sunny 39 4.1 38 3.4 95 95 Calm 29.9 1013 10 16.0934 0 0
9:55 am 09:55 Sunny 45 7.3 39 4 80 80 SSW 3 6 29.89 1012 10 16.0934 0 0
10:15 am 10:15 Sunny 49 9.4 39 3.9 69 69 S 6 9 29.87 1012 10 16.0934 0 0
10:35 am 10:35 Sunny 52 11.1 40 4.2 63 63 S 6 9 29.87 1011 10 16.0934 0 0
10:55 am 10:55 Sunny 54 12 38 3.6 57 57 S 10 17 29.85 1011 10 16.0934 0 0
11:15 am 11:15 Sunny 54 12.4 38 3.6 55 55 SSW 12 19 29.85 1011 10 16.0934 0 0
11:35 am 11:35 Sunny 56 13.1 39 4 54 54 SSW 13 20 29.84 1011 10 16.0934 0 0
11:55 am 11:55 Sunny 56 13.6 39 3.7 51 51 SSW 13 20 29.83 1010 10 16.0934 0 0
12:15 pm 12:15 Sunny 57 13.7 40 4.2 53 53 SSW 13 20 29.84 1010 10 16.0934 0 0
12:35 pm 12:35 Sunny 57 13.8 39 4.1 52 52 S 10 17 29.83 1010 10 16.0934 0 0
12:55 pm 12:55 Sunny 59 14.9 40 4.3 49 49 SSW 15 24 29.81 1009 10 16.0934 0 0
1:15 pm 13:15 Sunny 61 16 40 4.3 46 46 SSW 14 22 29.78 1009 10 16.0934 0 0
1:35 pm 13:35 Sunny 60 15.7 40 4.2 47 47 SSW 15 24 29.78 1009 10 16.0934 0 0
1:55 pm 13:55 Sunny 60 15.7 39 4 46 46 SSW 17 28 29.77 1008 10 16.0934 0 0
2:15 pm 14:15 Sunny 60 15.8 40 4.2 46 46 SSW 13 20 29.76 1008 10 16.0934 0 0
2:35 pm 14:35 Sunny 61 16.1 40 4.2 45 45 S 12 19 29.75 1008 10 16.0934 0 0
2:55 pm 14:55 Sunny 62 16.4 40 4.3 45 45 SSW 13 20 29.75 1008 10 16.0934 0 0
3:15 pm 15:15 Sunny 62 16.4 40 4.4 45 45 SSW 10 17 29.74 1007 10 16.0934 0 0
3:35 pm 15:35 Sunny 61 16.3 40 4.3 45 45 S 10 17 29.74 1007 10 16.0934 0 0
3:55 pm 15:55 Sunny 61 16.3 40 4.7 46 46 S 7 11 29.74 1007 10 16.0934 0 0
4:15 pm 16:15 Sunny 62 16.6 40 4.5 45 45 S 9 15 29.74 1007 10 16.0934 0 0
4:35 pm 16:35 Sunny 63 17.3 39 3.8 41 41 SSW 15 24 29.74 1007 10 16.0934 0 0
4:55 pm 16:55 Sunny 63 17.1 38 3.6 41 41 S 14 22 29.73 1007 10 16.0934 0 0
5:15 pm 17:15 Sunny 62 16.7 38 3.5 42 42 S 12 19 29.72 1007 10 16.0934 0 0
5:35 pm 17:35 Sunny 62 16.5 38 3.5 42 42 S 13 20 29.73 1007 10 16.0934 0 0
5:55 pm 17:55 Sunny 61 16 39 3.7 44 44 S 13 20 29.73 1007 10 16.0934 0 0
6:15 pm 18:15 Clear 60 15.6 39 3.8 46 46 SSW 10 17 29.74 1007 10 16.0934 0 0
6:35 pm 18:35 Clear 61 15.9 39 3.8 45 45 SSW 12 19 29.73 1007 10 16.0934 0 0
6:55 pm 18:55 Mostly Cloudy 60 15.8 39 3.9 45 45 SSW 10 17 29.74 1007 10 16.0934 0 0
7:15 pm 19:15 Mostly Cloudy 60 15.6 39 4 46 46 SSW 8 13 29.75 1007 10 16.0934 0 0
7:35 pm 19:35 Mostly Cloudy 60 15.4 40 4.2 47 47 SSW 8 13 29.75 1007 10 16.0934 0 0
7:55 pm 19:55 Cloudy 60 15.4 40 4.4 48 48 SSW 9 15 29.74 1007 10 16.0934 0 0
8:15 pm 20:15 Cloudy 61 16 40 4.3 46 46 S 12 19 29.73 1007 10 16.0934 0 0
8:35 pm 20:35 Cloudy 61 16.2 40 4.3 45 45 S 12 19 29.73 1007 10 16.0934 0 0
8:55 pm 20:55 Mostly Cloudy 61 16.2 40 4.3 45 45 SSW 12 19 29.73 1007 10 16.0934 0 0
9:15 pm 21:15 Cloudy 62 16.5 39 4.1 44 44 SSW 14 22 29.73 1007 10 16.0934 0 0
9:35 pm 21:35 Cloudy 63 17.2 39 3.9 41 41 SSW 16 26 29.74 1007 10 16.0934 0 0
9:55 pm 21:55 Cloudy 64 17.5 38 3.5 40 40 SSW 16 26 29.74 1007 10 16.0934 0 0
10:15 pm 22:15 Cloudy with Light Rain 60 15.4 43 6 54 54 SSW 17 28 29.77 1008 10 16.0934 0 0
10:30 pm 22:30 Cloudy with Light Rain 61 16.1 42 5.6 50 50 SSW 18 30 29.76 1008 10 16.0934 0 0
10:55 pm 22:55 Partly Cloudy 61 16 41 5.1 49 49 SW 14 22 29.76 1008 10 16.0934 0 0
11:15 pm 23:15 Partly Cloudy 61 15.9 41 5.2 49 49 SSW 12 19 29.76 1008 10 16.0934 0 0
11:35 pm 23:35 Cloudy 61 16.3 42 5.6 49 49 SSW 12 19 29.76 1008 10 16.0934 0 0
11:55 pm 23:55 Cloudy 61 16 42 5.3 49 49 SSW 10 17 29.76 1008 10 16.0934 0 0

Powered by AerisWeather